Torna al catalogo

USA 253

AttivoMilitareGEO
NORAD 40099·PAYLOAD·🇺🇸 United States

Lanciato Jul 28, 2014 da Cape Canaveral Space Force Station

Loading…

TLE

AggiornatoSource: Space-Track

Epoca: Sep 14, 2026, 08:18 UTC

1 40099U 14043A   26257.34605166 -.00000081  00000-0  00000+0 0  9996
2 40099   5.7320  74.1304 0004241 112.9296 213.8873  0.96772995 28221

Traccia USA 253 in tempo reale con AllMySat

Download on the App Store